CAPE
495 141 397 286 21 265 655 288 843 1272 1351 1416 1147 1006 981 934 877 778 1308 644 614 599
489 720 355 258 184 22 11 948 754 825 1326 1485 1291 1400 1374 1155 857 1170 1353 1028 575 736
751 594 946 414 187 922 1072 1015 688 709 1185 1384 1364 989 1329 1369 1045 966 1088 990 726 1124
791 700 880 1306 646 646 1114 641 615 746 1054 1166 1349 1312 1354 1434 984 747 854 1368 919 854
1171 983 958 877 1161 1207 510 1033 1130 1012 762 882 1465 1403 1330 1451 1209 893 644 876 933 686
1337 1067 921 718 748 944 1275 638 546 599 766 701 611 822 1042 1220 1206 921 848 871 1122 1287
1172 1286 1142 1039 956 561 677 1072 747 539 569 1117 1549 1356 1476 1491 1483 1502 1451 1376 1393 1314
1299 1391 1282 1217 1368 1219 981 866 999 959 1066 1198 1410 1517 1568 1663 1515 1587 1790 1788 1826 1767
1891 1634 1694 1525 1475 1831 1549 1626 1685 1551 1500 1540 1910 1405 1259 1312 1290 932 917 1172 1242 1385
2194 2135 2019 2172 2084 2137 2201 1982 2046 1984 1962 2055 1790 797 786 601 33 29 404 779 990 1077
2445 2356 2376 2442 2477 2412 2551 2469 2293 2280 2314 1958 937 258 193 67 0 1 0 0 0 0
2749 2781 2613 2593 2637 2804 2827 2806 2739 2602 1995 1255 286 12 1 0 0 0 0 0 0 0
3180 2906 2872 2946 2966 2936 2615 2367 2141 1304 1069 437 154 0 0 0 0 0 0 0 0 0
3553 3407 3407 3088 2876 2636 2345 1838 1228 758 196 17 0 0 0 0 0 0 0 0 0 0
CIN
-40 -75 -38 -44 -103 -50 -35 -49 -34 -26 -20 -27 -29 -35 -35 -36 -33 -25 -11 -33 -35 -50
-58 -22 -48 -55 -50 -78 -82 -30 -18 -17 -24 -22 -22 -24 -17 -23 -31 -18 -16 -25 -46 -36
-64 -55 -28 -44 -63 -26 -16 -12 -22 -32 -34 -16 -17 -28 -18 -20 -39 -34 -26 -30 -34 -20
-93 -81 -49 -30 -49 -45 -20 -23 -28 -26 -21 -27 -14 -12 -12 -15 -31 -47 -42 -23 -32 -33
-93 -81 -68 -74 -45 -38 -59 -39 -39 -40 -39 -26 -12 -11 -14 -16 -25 -39 -51 -50 -46 -60
-112 -127 -131 -138 -113 -84 -53 -78 -77 -76 -69 -68 -57 -37 -26 -21 -20 -30 -35 -36 -26 -24
-158 -150 -141 -141 -130 -153 -127 -83 -105 -113 -116 -75 -43 -38 -29 -21 -19 -15 -14 -23 -16 -17
-173 -145 -143 -144 -133 -123 -122 -128 -109 -98 -91 -79 -46 -24 -18 -14 -14 -10 -4 -9 -7 -8
-149 -149 -143 -132 -129 -94 -101 -88 -72 -74 -72 -44 -8 -44 -66 -52 -46 -70 -54 -25 -27 -24
-135 -133 -130 -104 -89 -72 -66 -69 -58 -56 -51 -35 -23 -92 -90 -97 -141 -283 -171 -85 -55 -51
-114 -108 -99 -71 -55 -47 -36 -33 -38 -27 -18 -20 -86 -227 -211 -254 0 -67 -60 0 0 0
-84 -68 -63 -51 -37 -23 -9 -9 -11 -11 -12 -55 -208 -374 -26 0 0 0 0 0 0 0
-34 -37 -38 -23 -22 -20 -10 -7 -11 -54 -44 -112 -232 0 0 0 0 0 0 0 0 0
-27 -20 -19 -29 -33 -32 -29 -36 -90 -124 -201 -308 0 0 0 0 0 0 0 0 0 0
Wind_Speed
25 23 23 14 28 30 6 22 15 14 12 2 10 18 17 17 20 20 17 16 19 23
22 22 25 25 26 31 31 30 18 26 11 4 8 18 15 18 21 22 19 18 21 21
19 24 25 29 29 26 27 17 19 21 21 8 13 15 16 19 19 22 22 20 23 23
19 22 28 27 28 29 26 32 15 10 14 8 12 8 8 9 13 17 26 26 24 27
17 20 22 26 23 13 17 9 24 19 12 10 12 11 12 10 12 10 12 14 7 13
17 18 19 21 21 15 8 13 8 14 16 11 8 6 10 14 12 8 6 4 5 5
18 14 17 16 17 16 13 7 7 6 5 4 4 5 8 12 15 8 5 6 7 15
21 18 16 14 14 14 10 10 6 5 4 3 5 6 8 10 12 10 6 6 7 9
14 14 13 13 12 11 12 7 5 5 5 5 9 10 11 14 19 26 32 21 12 12
14 14 14 10 10 8 8 7 6 6 6 6 9 8 12 17 22 24 30 30 28 29
11 11 9 9 11 11 8 9 9 9 9 9 12 11 16 19 23 27 32 32 33 34
8 7 8 9 10 9 10 11 12 12 13 14 12 14 14 18 22 28 30 31 33 37
7 8 9 9 10 11 10 11 14 22 28 21 13 16 14 19 24 29 33 33 36 37
7 6 6 8 11 13 14 16 18 14 10 9 7 8 14 19 24 29 34 34 34 33
Wind_Direction
168 164 170 156 179 199 283 180 285 294 301 1 319 301 304 312 309 315 330 331 328 310
164 166 172 172 184 203 208 225 173 260 170 155 319 302 311 309 303 302 317 325 320 320
163 170 172 184 191 181 220 272 269 272 277 305 304 305 310 306 310 306 310 318 316 318
167 171 182 183 189 197 249 226 286 302 303 309 306 316 323 324 322 317 299 303 312 309
162 168 175 186 185 178 184 278 271 284 300 306 310 312 317 318 318 321 324 326 330 328
163 168 174 179 185 180 183 189 206 289 294 300 300 287 308 314 316 313 305 260 298 256
167 165 168 170 174 179 184 189 194 209 217 254 290 306 313 314 311 309 270 245 237 228
168 167 166 166 168 172 172 184 198 212 224 264 290 305 311 314 315 314 279 267 286 305
163 168 170 173 174 174 180 188 199 211 233 275 306 316 316 313 309 303 291 310 310 310
172 175 180 183 188 196 203 208 226 235 244 275 300 304 308 310 313 306 298 300 306 309
186 191 195 201 203 207 218 230 251 252 260 280 300 301 305 309 309 302 297 299 303 307
209 223 221 221 229 243 252 254 251 253 272 288 302 304 307 312 312 304 305 306 310 307
239 231 224 227 224 230 243 273 285 298 293 291 316 296 312 312 310 306 305 312 311 313
268 273 278 298 306 308 307 307 306 309 323 331 346 331 324 318 314 311 309 312 318 322